FENGYUN 1C DEB

Satellite information

Favourite Embed

Satellite Type and Status

DEBRISIN ORBIT

Key statistics

Satellite FENGYUN 1C DEB at a glance.

Uptime

9715

Days in orbit

Revolutions

≈ 14.3

Per day

Orbit

SSO

Sun Synchronous Orbit

Inclination

102.1

Latest

Satellite identification and parameters

Extended collection of information and parameters for FENGYUN 1C DEB.

Object identification

Identified? True

Debris? True

Object name: FENGYUN 1C DEB

International designator: 1999-025AEC

Object number (NORAD): 30413

Object ID (CCSDS): 30413

Country: PEOPLES REPUBLIC OF CHINA (PRC)

Current information (Y/N): Y

RCS size: SMALL

Orbital parameters

Period: 100.52 minutes

Inclination: 102.0625 deg

SMA: 7161.364 km

Apoapsis: 815.558 km

Periapsis: 750.901 km

RAAN: 220.7693 deg

Eccentricy: 0.00451432

Argument of periapsis: 214.588 deg

Mean anomaly: 210.6296 deg

Mean motion: 14.32547763 rev/day

Mean motion (dot): 0.00006608 rev/day2

B* drag term: 0.0024326319 1/REarth

Two-line elements (TLE)

Creation date: Dec. 14, 2025, 3:07 a.m.

Reference frame: TEME

Reference center: EARTH

Epoch: Dec. 13, 2025, 1:25 p.m. UTC

TLE line 0: 0 FENGYUN 1C DEB

TLE line 1: 1 30413U 99025AEC 25347.55965979 .00006608 00000-0 24326-2 0 9991

TLE line 2: 2 30413 102.0625 220.7693 0045143 214.5880 210.6296 14.32547763971514

Live tracking on map

Real-time ground track for satellite FENGYUN 1C DEB.

In-orbit conjunctions

A list of the most updated potential collisions computed for object FENGYUN 1C DEB.

Target Orbit TCA Probability of collision Miss distance Type
CBERS 2B SSO 2025-03-23 21:19:15 0.0003215283 952.0 (m) PAYLOAD
CZ-6A DEB LEO 2025-01-30 03:23:26 0.0001180465 406.0 (m) DEBRIS
THOR BURNER 2 R/B SSO 2024-11-08 15:39:04 0.0001031703 720.0 (m) ROCKET BODY

Associated space launch

Chinese polar orbiting meteorological satellite

FENGYUN 1C DEB was lifted into orbit during the mission ‘Long March 4B | Feng Yun 1C’, on board a Long March 4B space rocket.

The launch took place on May 10, 1999, 1:33 a.m. from Launch Complex 7.

For more information about the launch, click the button.

Launch to space Long March 4B | Feng Yun 1C
Long March 4B | Feng Yun 1C

Agency: N/A

Status: Launch Successful

Launch date: May 10, 1999, 1:33 a.m. UTC

Rocket: Long March 4B

Launch pad: Launch Complex 7

Location: Taiyuan Satellite Launch Center, People's Republic of China

...

Latest news about this satellite

There are no fresh news available about this satellite. Check back as we update our databases every day.


Newsletter sign-up

Weekly statistics, charts and insights to help you stay on top of the space industry.